Regional Weather Roundup
Issued by NWS Little Rock, AR

Home | Current Version | Previous Version | Text Only | Print | Product List | Glossary On
Versions: 1 2 3 4 5 6 7 8 9 10 11 12 13 14 15 16 17 18 19 20 21 22 23 24 25 26 27 28 29 30 31 32 33 34 35 36 37 38 39 40 41 42 43 44 45 46 47 48 49 50
000
ASUS44 KLZK 171212
RWRLZK

WEATHER ROUNDUP FOR ARKANSAS
NATIONAL WEATHER SERVICE LITTLE ROCK AR
700 AM CDT TUE OCT 17 2017

NOTE: "FAIR" INDICATES FEW OR NO CLOUDS BELOW 12,000 FEET WITH NO
SIGNIFICANT WEATHER AND/OR OBSTRUCTIONS TO VISIBILITY.

ARZ001-003-010-029-171300-
NORTHWEST ARKANSAS

CITY           SKY/WX    TMP DP  RH WIND       PRES   REMARKS
FAYETTEVILLE   CLOUDY    37  37 100 CALM      30.31S
6HR MIN TEMP:  37; 6HR MAX TEMP:  40;

FORT SMITH     CLEAR     47  45  93 E5        30.32R
6HR MIN TEMP:  46; 6HR MAX TEMP:  51;

HARRISON       CLOUDY    40  38  93 SE5       30.32S
6HR MIN TEMP:  39; 6HR MAX TEMP:  48;

BENTONVILLE    PTCLDY    45  40  82 SE3       30.33R
6HR MIN TEMP:  42; 6HR MAX TEMP:  46; 6HR PCP: TRACE;

ROGERS         MOCLDY    46  42  86 SE7       30.31R
6HR MIN TEMP:  44; 6HR MAX TEMP:  47;

SILOAM SPGS    PTCLDY    42  40  92 E5        30.31R
6HR MIN TEMP:  41; 6HR MAX TEMP:  45;

HIGHFILL       MOCLDY    41  39  93 CALM      30.31R
6HR MIN TEMP:  40; 6HR MAX TEMP:  45;

SPRINGDALE     CLEAR     45  41  87 CALM      30.32R
$$

ARZ004-005-016-171300-
NORTH CENTRAL ARKANSAS

CITY           SKY/WX    TMP DP  RH WIND       PRES   REMARKS
BATESVILLE     CLOUDY    37  37 100 CALM      30.36R FOG
6HR MIN TEMP:  38; 6HR MAX TEMP:  44;

FLIPPIN        CLOUDY    38  37  97 NE3       30.35R
6HR MIN TEMP:  37; 6HR MAX TEMP:  42;

MTN HOME       PTCLDY    41  41 100 CALM      30.33R
6HR MIN TEMP:  39; 6HR MAX TEMP:  45;

$$

ARZ040-041-171300-
WEST CENTRAL ARKANSAS

CITY           SKY/WX    TMP DP  RH WIND       PRES   REMARKS
MENA           CLEAR     36  36 100 CALM      30.33S
$$

ARZ009-017-025-026-028-171300-
NORTHEAST ARKANSAS

CITY           SKY/WX    TMP DP  RH WIND       PRES   REMARKS
JONESBORO      CLEAR     42  41  96 CALM      30.34S
6HR MIN TEMP:  41; 6HR MAX TEMP:  46;

NEWPORT        CLEAR     40  39  97 N5        30.36R
6HR MIN TEMP:  40; 6HR MAX TEMP:  45;

WALNUT RIDGE   CLEAR     40  38  93 NW6       30.35R
6HR MIN TEMP:  39; 6HR MAX TEMP:  45;

BLYTHEVILLE    CLEAR     41  39  93 N5        30.36R
6HR MIN TEMP:  40; 6HR MAX TEMP:  46;

$$

ARZ022-023-033-042-044-171300-
CENTRAL ARKANSAS

CITY           SKY/WX    TMP DP  RH WIND       PRES   REMARKS
LITTLE ROCK    PTCLDY    44  43  96 CALM      30.34R
6HR MIN TEMP:  42; 6HR MAX TEMP:  49;

N LITTLE ROCK    N/A     48  39  71 E3        30.35S
6HR MIN TEMP:  47; 6HR MAX TEMP:  51;

JACKSONVILLE   CLEAR     40  38  93 CALM      30.33R
6HR MIN TEMP:  38; 6HR MAX TEMP:  43;

SEARCY         CLEAR     40  40 100 MISG        N/A
6HR MIN TEMP:  39; 6HR MAX TEMP:  43;

HOT SPRINGS    LGT RAIN  41  40  96 CALM      30.33S VSB 1/4
6HR MIN TEMP:  39; 6HR MAX TEMP:  47;

RUSSELLVILLE   CLOUDY    39  39 100 CALM      30.33F
6HR MIN TEMP:  39; 6HR MAX TEMP:  44;

CLINTON        FAIR      37  36  93 CALM      30.36S
$$

ARZ036-171300-
EAST ARKANSAS

CITY           SKY/WX    TMP DP  RH WIND       PRES   REMARKS
WEST MEMPHIS   CLEAR     41  41 100 CALM      30.34R
6HR MIN TEMP:  41; 6HR MAX TEMP:  46;

$$

ARZ050-053-066-070-073-171300-
SOUTHWEST ARKANSAS

CITY           SKY/WX    TMP DP  RH WIND       PRES   REMARKS
ARKADELPHIA    FOG       36  36 100 CALM      30.34R VSB 3/4
6HR MIN TEMP:  35; 6HR MAX TEMP:  41;

CAMDEN         CLEAR     36  34  93 CALM      30.32S
TEXARKANA      CLEAR     40  40 100 CALM      30.31S
6HR MIN TEMP:  39; 6HR MAX TEMP:  51;

EL DORADO      CLEAR     40  39  97 CALM      30.31R
6HR MIN TEMP:  40; 6HR MAX TEMP:  45;

$$

ARZ056-057-069-171300-
SOUTHEAST ARKANSAS

CITY           SKY/WX    TMP DP  RH WIND       PRES   REMARKS
PINE BLUFF     CLEAR     45  40  82 NW3       30.33R
6HR MIN TEMP:  41; 6HR MAX TEMP:  46;

STUTTGART      CLEAR     40  38  93 N7        30.34R
6HR MIN TEMP:  40; 6HR MAX TEMP:  52;

MONTICELLO     CLEAR     45  41  86 NE3       30.31R
6HR MIN TEMP:  43; 6HR MAX TEMP:  48;


$$





USA.gov is the U.S. government's official web portal to all federal, state and local government web resources and services.